TimeEST,TemperatureF,Dew PointF,Humidity,Sea Level PressureIn,VisibilityMPH,Wind Direction,Wind SpeedMPH,Gust SpeedMPH,PrecipitationIn,Events,Conditions,WindDirDegrees,DateUTC
12:51 AM,37.9,16.0,41,30.17,10.0,North,15.0,19.6,N/A,,Clear,360,2013-03-09 05:51:00
1:51 AM,37.0,15.1,41,30.17,10.0,North,12.7,18.4,N/A,,Clear,350,2013-03-09 06:51:00
2:51 AM,35.1,16.0,46,30.16,10.0,North,11.5,17.3,N/A,,Clear,10,2013-03-09 07:51:00
3:51 AM,35.1,16.0,46,30.16,10.0,NNE,8.1,-,N/A,,Clear,30,2013-03-09 08:51:00
4:51 AM,33.1,16.0,50,30.19,10.0,North,6.9,-,N/A,,Clear,350,2013-03-09 09:51:00
5:51 AM,30.9,15.1,52,30.20,10.0,North,6.9,-,N/A,,Clear,360,2013-03-09 10:51:00
6:51 AM,32.0,14.0,48,30.22,10.0,North,4.6,-,N/A,,Clear,360,2013-03-09 11:51:00
7:51 AM,36.0,15.1,43,30.24,10.0,North,4.6,-,N/A,,Clear,10,2013-03-09 12:51:00
8:51 AM,39.9,15.1,36,30.24,10.0,NE,9.2,-,N/A,,Clear,50,2013-03-09 13:51:00
9:51 AM,42.1,14.0,32,30.24,10.0,NE,9.2,-,N/A,,Clear,40,2013-03-09 14:51:00
10:51 AM,45.0,14.0,29,30.24,10.0,NNE,9.2,-,N/A,,Clear,30,2013-03-09 15:51:00
11:51 AM,46.9,12.9,25,30.24,10.0,Variable,6.9,-,N/A,,Clear,0,2013-03-09 16:51:00
12:51 PM,48.9,10.9,22,30.23,10.0,NNE,5.8,-,N/A,,Clear,30,2013-03-09 17:51:00
2:51 PM,48.0,23.0,37,30.22,10.0,SSE,9.2,-,N/A,,Clear,150,2013-03-09 19:51:00
3:51 PM,45.0,26.1,48,30.24,10.0,SSE,4.6,-,N/A,,Clear,160,2013-03-09 20:51:00
4:51 PM,42.1,26.1,53,30.26,10.0,SSE,4.6,-,N/A,,Clear,150,2013-03-09 21:51:00
5:51 PM,39.0,26.1,60,30.30,10.0,SSE,3.5,-,N/A,,Clear,150,2013-03-09 22:51:00
6:51 PM,35.1,27.0,72,30.32,10.0,SSE,3.5,-,N/A,,Clear,150,2013-03-09 23:51:00
7:51 PM,33.1,26.1,75,30.33,10.0,Calm,Calm,-,N/A,,Clear,0,2013-03-10 00:51:00
8:51 PM,30.0,26.1,85,30.33,10.0,Calm,Calm,-,N/A,,Clear,0,2013-03-10 01:51:00
9:51 PM,30.0,26.1,85,30.35,10.0,Calm,Calm,-,N/A,,Clear,0,2013-03-10 02:51:00
10:51 PM,28.0,25.0,88,30.35,10.0,NW,8.1,-,N/A,,Clear,320,2013-03-10 03:51:00
11:51 PM,27.0,25.0,92,30.35,10.0,NNW,4.6,-,N/A,,Clear,330,2013-03-10 04:51:00